| time (UTC) | temp C | wind direction | speed KPH | gust KPH | rain 1hr cm | rain 24hr cm | rain mn cm | humidity % | barometer mb |
| 20260507202651 | 15 | 274 | 14.5 | 29.0 | 0.00 | 0.15 | 0.00 | 36 | 1015.7 |
| 20260507201811 | 15 | 291 | 14.5 | 30.6 | 0.00 | 0.18 | 0.00 | 34 | 1015.9 |
| 20260507200929 | 15 | 293 | 11.3 | 30.6 | 0.00 | 0.20 | 0.00 | 34 | 1016.2 |
| 20260507200725 | 14 | 10 | 11.3 | 30.6 | 0.00 | 0.20 | 0.00 | 35 | 1016.3 |
| 20260507200525 | 14 | 284 | 11.3 | 30.6 | 0.00 | 0.20 | 0.00 | 34 | 1016.4 |
| 20260507200009 | 14 | 289 | 11.3 | 24.1 | 0.00 | 0.20 | 0.00 | 34 | 1016.3 |
| 20260507195759 | 14 | 257 | 11.3 | 24.1 | 0.00 | 0.23 | 0.00 | 34 | 1016.5 |
| 20260507195236 | 14 | 248 | 12.9 | 24.1 | 0.00 | 0.23 | 0.00 | 34 | 1016.4 |
| 20260507195032 | 13 | 322 | 12.9 | 24.1 | 0.00 | 0.23 | 0.00 | 36 | 1016.5 |
| 20260507194825 | 13 | 275 | 12.9 | 24.1 | 0.00 | 0.23 | 0.00 | 33 | 1016.6 |
| 20260507194304 | 13 | 265 | 11.3 | 30.6 | 0.00 | 0.23 | 0.00 | 35 | 1016.7 |
| 20260507194058 | 13 | 286 | 11.3 | 30.6 | 0.00 | 0.28 | 0.00 | 34 | 1016.7 |
| 20260507193856 | 13 | 297 | 9.7 | 30.6 | 0.00 | 0.28 | 0.00 | 35 | 1016.7 |
| 20260507193653 | 13 | 298 | 11.3 | 30.6 | 0.00 | 0.28 | 0.00 | 39 | 1016.7 |
| 20260507193446 | 13 | 294 | 12.9 | 30.6 | 0.00 | 0.28 | 0.00 | 34 | 1016.8 |
| 20260507193240 | 13 | 284 | 11.3 | 30.6 | 0.00 | 0.28 | 0.00 | 35 | 1016.8 |
| 20260507193041 | 13 | 273 | 12.9 | 30.6 | 0.00 | 0.28 | 0.00 | 34 | 1016.9 |
| 20260507192834 | 13 | 284 | 12.9 | 30.6 | 0.00 | 0.28 | 0.00 | 34 | 1017.0 |
| 20260507192300 | 13 | 308 | 11.3 | 24.1 | 0.00 | 0.30 | 0.00 | 33 | 1017.0 |
| 20260507192053 | 13 | 304 | 11.3 | 24.1 | 0.00 | 0.30 | 0.00 | 34 | 1017.0 |
| 20260507191847 | 13 | 250 | 11.3 | 24.1 | 0.00 | 0.30 | 0.00 | 37 | 1017.1 |
| 20260507191638 | 13 | 261 | 12.9 | 24.1 | 0.00 | 0.30 | 0.00 | 36 | 1017.2 |
| 20260507191433 | 13 | 269 | 14.5 | 24.1 | 0.00 | 0.30 | 0.00 | 31 | 1017.3 |
| 20260507191230 | 13 | 263 | 12.9 | 24.1 | 0.00 | 0.33 | 0.00 | 36 | 1017.3 |
| 20260507190348 | 13 | 253 | 11.3 | 27.4 | 0.00 | 0.36 | 0.00 | 34 | 1017.6 |
| 20260507190145 | 13 | 347 | 11.3 | 27.4 | 0.00 | 0.36 | 0.00 | 36 | 1017.6 |
| 20260507185935 | 13 | 299 | 11.3 | 27.4 | 0.00 | 0.36 | 0.00 | 35 | 1017.6 |
| 20260507185726 | 13 | 294 | 11.3 | 27.4 | 0.00 | 0.36 | 0.00 | 34 | 1017.7 |
| 20260507185201 | 13 | 305 | 12.9 | 27.4 | 0.00 | 0.36 | 0.00 | 30 | 1017.7 |
| 20260507184958 | 13 | 272 | 12.9 | 27.4 | 0.00 | 0.36 | 0.00 | 32 | 1017.8 |
| 20260507184757 | 13 | 265 | 11.3 | 27.4 | 0.00 | 0.36 | 0.00 | 32 | 1017.7 |
| 20260507184552 | 13 | 286 | 8.0 | 27.4 | 0.00 | 0.36 | 0.00 | 31 | 1017.7 |
| 20260507184353 | 13 | 293 | 9.7 | 19.3 | 0.00 | 0.36 | 0.00 | 30 | 1017.8 |
| 20260507184147 | 13 | 253 | 6.4 | 19.3 | 0.00 | 0.36 | 0.00 | 29 | 1017.8 |
| 20260507183948 | 13 | 273 | 6.4 | 19.3 | 0.00 | 0.36 | 0.00 | 33 | 1017.8 |
| 20260507183739 | 13 | 284 | 6.4 | 14.5 | 0.00 | 0.36 | 0.00 | 34 | 1017.7 |
| 20260507183539 | 13 | 312 | 6.4 | 14.5 | 0.00 | 0.41 | 0.00 | 33 | 1017.8 |
| 20260507183334 | 13 | 295 | 6.4 | 19.3 | 0.00 | 0.41 | 0.00 | 35 | 1017.8 |
| 20260507183129 | 13 | 248 | 8.0 | 19.3 | 0.00 | 0.41 | 0.00 | 35 | 1017.9 |
| 20260507182919 | 13 | 278 | 8.0 | 19.3 | 0.00 | 0.41 | 0.00 | 32 | 1017.9 |
| 20260507182715 | 12 | 247 | 8.0 | 19.3 | 0.00 | 0.41 | 0.00 | 35 | 1017.9 |
| 20260507182514 | 12 | 322 | 8.0 | 19.3 | 0.00 | 0.41 | 0.00 | 32 | 1018.0 |
| 20260507182306 | 12 | 282 | 8.0 | 19.3 | 0.00 | 0.41 | 0.00 | 30 | 1017.9 |
| 20260507182055 | 12 | 299 | 8.0 | 19.3 | 0.00 | 0.43 | 0.00 | 30 | 1017.9 |
| 20260507181853 | 12 | 263 | 8.0 | 19.3 | 0.00 | 0.43 | 0.00 | 29 | 1018.0 |
| 20260507181647 | 13 | 279 | 8.0 | 19.3 | 0.00 | 0.43 | 0.00 | 30 | 1018.0 |
| 20260507181445 | 12 | 344 | 8.0 | 16.1 | 0.00 | 0.46 | 0.00 | 32 | 1018.0 |
| 20260507180926 | 12 | 199 | 8.0 | 16.1 | 0.00 | 0.48 | 0.00 | 32 | 1018.0 |
| 20260507180722 | 12 | 252 | 8.0 | 16.1 | 0.00 | 0.48 | 0.00 | 32 | 1018.2 |
| 20260507180521 | 12 | 248 | 8.0 | 16.1 | 0.00 | 0.48 | 0.00 | 34 | 1018.3 |
| 20260507180320 | 12 | 293 | 8.0 | 14.5 | 0.00 | 0.48 | 0.00 | 34 | 1018.3 |
| 20260507180111 | 12 | 284 | 9.7 | 14.5 | 0.00 | 0.48 | 0.00 | 31 | 1018.4 |
| 20260507175907 | 12 | 259 | 8.0 | 12.9 | 0.00 | 0.48 | 0.00 | 31 | 1018.4 |
| 20260507175706 | 12 | 267 | 9.7 | 12.9 | 0.00 | 0.48 | 0.00 | 32 | 1018.5 |
| 20260507175406 | 12 | 245 | 9.7 | 17.7 | 0.00 | 0.48 | 0.00 | 32 | 1018.6 |
| 20260507175204 | 12 | 298 | 9.7 | 17.7 | 0.00 | 0.48 | 0.00 | 31 | 1018.6 |
| 20260507174955 | 12 | 307 | 9.7 | 17.7 | 0.00 | 0.48 | 0.00 | 31 | 1018.6 |
| 20260507174746 | 12 | 290 | 8.0 | 17.7 | 0.00 | 0.48 | 0.00 | 29 | 1018.5 |
| 20260507174542 | 12 | 282 | 8.0 | 17.7 | 0.00 | 0.48 | 0.00 | 30 | 1018.6 |
| 20260507174333 | 12 | 282 | 8.0 | 17.7 | 0.00 | 0.48 | 0.00 | 32 | 1018.5 |
| 20260507174126 | 12 | 302 | 6.4 | 17.7 | 0.00 | 0.48 | 0.00 | 33 | 1018.6 |
| 20260507173919 | 12 | 309 | 6.4 | 17.7 | 0.00 | 0.48 | 0.00 | 32 | 1018.6 |
| 20260507173357 | 12 | 287 | 4.8 | 17.7 | 0.00 | 0.48 | 0.00 | 34 | 1018.8 |
| 20260507172825 | 12 | 267 | 8.0 | 14.5 | 0.00 | 0.48 | 0.00 | 30 | 1019.0 |
| 20260507172618 | 12 | 286 | 8.0 | 14.5 | 0.00 | 0.48 | 0.00 | 34 | 1019.0 |
| 20260507172409 | 12 | 300 | 8.0 | 14.5 | 0.00 | 0.48 | 0.00 | 32 | 1019.0 |
| 20260507171844 | 12 | 302 | 6.4 | 16.1 | 0.00 | 0.48 | 0.00 | 35 | 1019.1 |
| 20260507171319 | 12 | 302 | 6.4 | 16.1 | 0.00 | 0.48 | 0.00 | 36 | 1019.2 |
| 20260507171115 | 12 | 252 | 6.4 | 16.1 | 0.00 | 0.48 | 0.00 | 33 | 1019.2 |
| 20260507170915 | 12 | 248 | 6.4 | 16.1 | 0.00 | 0.48 | 0.00 | 33 | 1019.2 |
| 20260507170348 | 11 | 310 | 8.0 | 16.1 | 0.00 | 0.48 | 0.00 | 36 | 1019.4 |
| 20260507170139 | 11 | 250 | 8.0 | 16.1 | 0.00 | 0.48 | 0.00 | 36 | 1019.4 |
| 20260507165935 | 11 | 290 | 8.0 | 16.1 | 0.00 | 0.48 | 0.00 | 36 | 1019.4 |
| 20260507165734 | 11 | 275 | 8.0 | 16.1 | 0.00 | 0.48 | 0.00 | 34 | 1019.5 |
| 20260507165534 | 11 | 261 | 8.0 | 16.1 | 0.00 | 0.48 | 0.00 | 36 | 1019.6 |
| 20260507165328 | 11 | 255 | 8.0 | 16.1 | 0.00 | 0.48 | 0.00 | 34 | 1019.6 |
| 20260507164802 | 11 | 302 | 8.0 | 19.3 | 0.00 | 0.48 | 0.00 | 39 | 1019.8 |
| 20260507164603 | 11 | 5 | 9.7 | 19.3 | 0.00 | 0.48 | 0.00 | 34 | 1019.7 |
| 20260507164401 | 11 | 294 | 9.7 | 19.3 | 0.00 | 0.48 | 0.00 | 35 | 1019.7 |
| 20260507164157 | 11 | 284 | 9.7 | 19.3 | 0.00 | 0.48 | 0.00 | 35 | 1019.9 |
| 20260507163946 | 11 | 279 | 9.7 | 19.3 | 0.00 | 0.48 | 0.00 | 36 | 1019.8 |
| 20260507163738 | 11 | 273 | 9.7 | 19.3 | 0.00 | 0.48 | 0.00 | 35 | 1019.9 |
| 20260507163533 | 11 | 288 | 8.0 | 19.3 | 0.00 | 0.48 | 0.00 | 34 | 1019.9 |
| 20260507163334 | 11 | 268 | 6.4 | 19.3 | 0.00 | 0.48 | 0.00 | 38 | 1019.9 |
| 20260507163132 | 11 | 254 | 8.0 | 19.3 | 0.00 | 0.48 | 0.00 | 34 | 1019.9 |
| 20260507162922 | 11 | 251 | 6.4 | 16.1 | 0.00 | 0.48 | 0.00 | 39 | 1020.0 |
| 20260507162713 | 11 | 282 | 6.4 | 17.7 | 0.00 | 0.48 | 0.00 | 43 | 1019.9 |
| 20260507162511 | 11 | 281 | 6.4 | 17.7 | 0.00 | 0.48 | 0.00 | 38 | 1020.0 |
| 20260507162307 | 11 | 242 | 8.0 | 17.7 | 0.00 | 0.48 | 0.00 | 39 | 1020.0 |
| 20260507162106 | 11 | 289 | 6.4 | 17.7 | 0.00 | 0.48 | 0.00 | 42 | 1020.1 |
| 20260507161904 | 10 | 315 | 8.0 | 17.7 | 0.00 | 0.48 | 0.00 | 37 | 1020.0 |
| 20260507161700 | 10 | 279 | 8.0 | 17.7 | 0.00 | 0.48 | 0.00 | 44 | 1020.0 |
| 20260507161458 | 10 | 248 | 8.0 | 17.7 | 0.00 | 0.48 | 0.00 | 45 | 1020.1 |
| 20260507161256 | 10 | 244 | 9.7 | 17.7 | 0.00 | 0.48 | 0.00 | 41 | 1020.1 |
| 20260507161054 | 10 | 244 | 9.7 | 17.7 | 0.00 | 0.48 | 0.00 | 40 | 1020.1 |
| 20260507160852 | 10 | 258 | 9.7 | 17.7 | 0.00 | 0.48 | 0.00 | 42 | 1020.2 |
| 20260507160644 | 10 | 299 | 9.7 | 17.7 | 0.00 | 0.48 | 0.00 | 44 | 1020.2 |
| 20260507160439 | 10 | 298 | 9.7 | 17.7 | 0.00 | 0.48 | 0.00 | 42 | 1020.3 |
| 20260507160232 | 10 | 281 | 9.7 | 17.7 | 0.00 | 0.48 | 0.00 | 43 | 1020.2 |
| 20260507160024 | 10 | 243 | 9.7 | 17.7 | 0.00 | 0.48 | 0.00 | 45 | 1020.3 |
| 20260507155822 | 10 | 231 | 9.7 | 17.7 | 0.00 | 0.48 | 0.00 | 44 | 1020.4 |
| 20260507155623 | 9 | 295 | 9.7 | 17.7 | 0.00 | 0.48 | 0.00 | 47 | 1020.3 |
| 20260507155415 | 9 | 245 | 9.7 | 17.7 | 0.00 | 0.48 | 0.00 | 46 | 1020.3 |
| 20260507154856 | 9 | 248 | 11.3 | 17.7 | 0.00 | 0.48 | 0.00 | 47 | 1020.4 |
| 20260507154327 | 9 | 239 | 11.3 | 17.7 | 0.00 | 0.48 | 0.00 | 49 | 1020.5 |
| 20260507154121 | 8 | 296 | 11.3 | 17.7 | 0.00 | 0.48 | 0.00 | 50 | 1020.6 |
| 20260507153920 | 8 | 269 | 9.7 | 17.7 | 0.00 | 0.48 | 0.00 | 51 | 1020.5 |
| 20260507153709 | 8 | 286 | 9.7 | 17.7 | 0.00 | 0.48 | 0.00 | 50 | 1020.5 |
| 20260507153504 | 8 | 227 | 9.7 | 19.3 | 0.00 | 0.48 | 0.00 | 49 | 1020.5 |
| 20260507152936 | 8 | 244 | 9.7 | 19.3 | 0.00 | 0.48 | 0.00 | 49 | 1020.5 |
| 20260507152727 | 8 | 254 | 9.7 | 19.3 | 0.00 | 0.48 | 0.00 | 50 | 1020.5 |
| 20260507152520 | 8 | 241 | 9.7 | 19.3 | 0.00 | 0.48 | 0.00 | 50 | 1020.5 |
| 20260507152321 | 8 | 257 | 9.7 | 19.3 | 0.00 | 0.48 | 0.00 | 51 | 1020.5 |
| 20260507152111 | 8 | 218 | 9.7 | 19.3 | 0.00 | 0.48 | 0.00 | 52 | 1020.6 |
| 20260507151902 | 8 | 262 | 9.7 | 19.3 | 0.00 | 0.48 | 0.00 | 52 | 1020.7 |
| 20260507151020 | 7 | 277 | 9.7 | 16.1 | 0.00 | 0.48 | 0.00 | 53 | 1020.9 |
| 20260507150814 | 7 | 276 | 9.7 | 16.1 | 0.00 | 0.48 | 0.00 | 53 | 1020.9 |
| 20260507150612 | 7 | 294 | 9.7 | 16.1 | 0.00 | 0.48 | 0.00 | 55 | 1021.0 |
| 20260507150403 | 7 | 257 | 9.7 | 16.1 | 0.00 | 0.48 | 0.00 | 55 | 1021.0 |
| 20260507150154 | 7 | 281 | 9.7 | 16.1 | 0.00 | 0.48 | 0.00 | 55 | 1020.9 |
| 20260507145637 | 7 | 246 | 9.7 | 17.7 | 0.00 | 0.48 | 0.00 | 54 | 1020.9 |
| 20260507145430 | 7 | 269 | 8.0 | 17.7 | 0.00 | 0.48 | 0.00 | 57 | 1020.8 |
| 20260507144905 | 7 | 240 | 9.7 | 17.7 | 0.00 | 0.48 | 0.00 | 56 | 1020.9 |
| 20260507144700 | 6 | 266 | 9.7 | 17.7 | 0.00 | 0.48 | 0.00 | 56 | 1020.9 |
| 20260507144452 | 6 | 288 | 9.7 | 17.7 | 0.00 | 0.48 | 0.00 | 55 | 1021.0 |
| 20260507144246 | 6 | 236 | 11.3 | 17.7 | 0.00 | 0.48 | 0.00 | 56 | 1021.1 |
| 20260507144041 | 6 | 263 | 11.3 | 19.3 | 0.00 | 0.48 | 0.00 | 56 | 1021.0 |
| 20260507143839 | 6 | 267 | 11.3 | 19.3 | 0.00 | 0.48 | 0.00 | 55 | 1021.0 |
| 20260507143634 | 6 | 265 | 11.3 | 19.3 | 0.00 | 0.48 | 0.00 | 56 | 1021.0 |
| 20260507143429 | 6 | 254 | 11.3 | 19.3 | 0.00 | 0.48 | 0.00 | 53 | 1021.0 |
| 20260507143221 | 6 | 233 | 11.3 | 19.3 | 0.00 | 0.48 | 0.00 | 55 | 1021.1 |
| 20260507143014 | 6 | 276 | 11.3 | 20.9 | 0.00 | 0.48 | 0.00 | 55 | 1021.2 |
| 20260507142804 | 6 | 259 | 11.3 | 20.9 | 0.00 | 0.48 | 0.00 | 54 | 1021.1 |
| 20260507142604 | 6 | 253 | 11.3 | 20.9 | 0.00 | 0.48 | 0.00 | 54 | 1021.2 |
| 20260507142359 | 6 | 242 | 11.3 | 20.9 | 0.00 | 0.48 | 0.00 | 54 | 1021.2 |
| 20260507142154 | 6 | 256 | 11.3 | 20.9 | 0.00 | 0.48 | 0.00 | 55 | 1021.2 |
| 20260507141946 | 6 | 268 | 11.3 | 20.9 | 0.00 | 0.48 | 0.00 | 54 | 1021.2 |
| 20260507141746 | 6 | 252 | 11.3 | 20.9 | 0.00 | 0.48 | 0.00 | 55 | 1021.2 |
| 20260507141543 | 6 | 268 | 11.3 | 20.9 | 0.00 | 0.48 | 0.00 | 54 | 1021.3 |
| 20260507141334 | 5 | 260 | 11.3 | 20.9 | 0.00 | 0.48 | 0.00 | 54 | 1021.2 |
| 20260507141123 | 5 | 259 | 11.3 | 20.9 | 0.00 | 0.48 | 0.00 | 53 | 1021.2 |
| 20260507140922 | 5 | 265 | 11.3 | 19.3 | 0.00 | 0.48 | 0.00 | 54 | 1021.2 |
| 20260507140721 | 5 | 258 | 12.9 | 17.7 | 0.00 | 0.48 | 0.00 | 53 | 1021.2 |
| 20260507140157 | 5 | 271 | 11.3 | 17.7 | 0.00 | 0.48 | 0.00 | 53 | 1021.3 |
| 20260507135954 | 5 | 254 | 11.3 | 17.7 | 0.00 | 0.48 | 0.00 | 52 | 1021.3 |
| 20260507135752 | 5 | 261 | 11.3 | 17.7 | 0.00 | 0.48 | 0.00 | 52 | 1021.3 |
| 20260507135546 | 5 | 248 | 9.7 | 17.7 | 0.00 | 0.48 | 0.00 | 53 | 1021.3 |
| 20260507135022 | 5 | 269 | 8.0 | 16.1 | 0.00 | 0.48 | 0.00 | 54 | 1021.3 |
| 20260507134501 | 5 | 253 | 8.0 | 12.9 | 0.00 | 0.48 | 0.00 | 56 | 1021.2 |
| 20260507134257 | 4 | 259 | 6.4 | 12.9 | 0.00 | 0.48 | 0.00 | 56 | 1021.2 |
| 20260507134049 | 4 | 248 | 6.4 | 12.9 | 0.00 | 0.48 | 0.00 | 57 | 1021.3 |
| 20260507133845 | 4 | 242 | 6.4 | 12.9 | 0.00 | 0.48 | 0.00 | 57 | 1021.2 |
| 20260507133323 | 3 | 277 | 8.0 | 12.9 | 0.00 | 0.48 | 0.00 | 58 | 1021.3 |
| 20260507133119 | 3 | 269 | 8.0 | 12.9 | 0.00 | 0.48 | 0.00 | 59 | 1021.3 |
| 20260507132920 | 3 | 271 | 8.0 | 12.9 | 0.00 | 0.48 | 0.00 | 58 | 1021.2 |
| 20260507132712 | 3 | 263 | 8.0 | 12.9 | 0.00 | 0.48 | 0.00 | 57 | 1021.2 |
| 20260507132508 | 3 | 260 | 8.0 | 12.9 | 0.00 | 0.48 | 0.00 | 58 | 1021.2 |
| 20260507132307 | 3 | 268 | 8.0 | 12.9 | 0.00 | 0.48 | 0.00 | 59 | 1021.2 |
| 20260507132105 | 3 | 249 | 8.0 | 12.9 | 0.00 | 0.48 | 0.00 | 58 | 1021.2 |
| 20260507131900 | 3 | 254 | 8.0 | 12.9 | 0.00 | 0.48 | 0.00 | 58 | 1021.2 |
| 20260507131651 | 3 | 258 | 8.0 | 12.9 | 0.00 | 0.48 | 0.00 | 59 | 1021.2 |
| 20260507131449 | 3 | 265 | 8.0 | 12.9 | 0.00 | 0.48 | 0.00 | 60 | 1021.2 |
| 20260507130926 | 2 | 262 | 8.0 | 12.9 | 0.00 | 0.48 | 0.00 | 60 | 1021.3 |
| 20260507130405 | 2 | 268 | 9.7 | 19.3 | 0.00 | 0.48 | 0.00 | 59 | 1021.3 |
| 20260507130204 | 2 | 257 | 9.7 | 19.3 | 0.00 | 0.48 | 0.00 | 60 | 1021.3 |
| 20260507125957 | 2 | 261 | 9.7 | 19.3 | 0.00 | 0.48 | 0.00 | 60 | 1021.3 |
| 20260507125757 | 2 | 242 | 9.7 | 19.3 | 0.00 | 0.48 | 0.00 | 59 | 1021.2 |
| 20260507125558 | 2 | 261 | 9.7 | 19.3 | 0.00 | 0.48 | 0.00 | 60 | 1021.2 |
| 20260507125359 | 2 | 255 | 8.0 | 19.3 | 0.00 | 0.48 | 0.00 | 60 | 1021.2 |
| 20260507125151 | 1 | 264 | 8.0 | 19.3 | 0.00 | 0.48 | 0.00 | 62 | 1021.3 |
| 20260507124941 | 1 | 250 | 8.0 | 19.3 | 0.00 | 0.48 | 0.00 | 62 | 1021.3 |
| 20260507124736 | 1 | 250 | 8.0 | 19.3 | 0.00 | 0.48 | 0.00 | 63 | 1021.2 |
| 20260507124528 | 1 | 247 | 8.0 | 14.5 | 0.00 | 0.48 | 0.00 | 65 | 1021.2 |
| 20260507124321 | 1 | 261 | 6.4 | 12.9 | 0.00 | 0.48 | 0.00 | 66 | 1021.1 |
| 20260507124119 | 0 | 259 | 6.4 | 11.3 | 0.00 | 0.48 | 0.00 | 67 | 1021.1 |
| 20260507123551 | 0 | 246 | 4.8 | 11.3 | 0.00 | 0.48 | 0.00 | 69 | 1021.1 |
| 20260507123348 | 0 | 251 | 4.8 | 11.3 | 0.00 | 0.48 | 0.00 | 69 | 1021.0 |
| 20260507123145 | 0 | 251 | 4.8 | 11.3 | 0.00 | 0.48 | 0.00 | 69 | 1021.0 |
| 20260507122941 | 0 | 252 | 4.8 | 9.7 | 0.00 | 0.48 | 0.00 | 70 | 1021.0 |
| 20260507122741 | 0 | 251 | 4.8 | 9.7 | 0.00 | 0.48 | 0.00 | 71 | 1021.0 |
| 20260507122542 | -1 | 251 | 4.8 | 9.7 | 0.00 | 0.48 | 0.00 | 71 | 1020.9 |
| 20260507122341 | -1 | 252 | 4.8 | 8.0 | 0.00 | 0.48 | 0.00 | 72 | 1020.9 |
| 20260507121810 | -1 | 252 | 4.8 | 8.0 | 0.00 | 0.48 | 0.00 | 71 | 1020.8 |
| 20260507121602 | -1 | 252 | 4.8 | 8.0 | 0.00 | 0.48 | 0.00 | 71 | 1020.8 |
| 20260507121035 | -1 | 252 | 6.4 | 9.7 | 0.00 | 0.48 | 0.00 | 71 | 1020.9 |
| 20260507120834 | -1 | 252 | 6.4 | 9.7 | 0.00 | 0.48 | 0.00 | 71 | 1020.9 |
| 20260507120625 | -1 | 252 | 6.4 | 9.7 | 0.00 | 0.48 | 0.00 | 71 | 1020.9 |
| 20260507120416 | -1 | 252 | 6.4 | 9.7 | 0.00 | 0.48 | 0.00 | 71 | 1020.9 |
| 20260507120206 | -1 | 252 | 6.4 | 9.7 | 0.00 | 0.48 | 0.00 | 70 | 1020.9 |
| 20260507120005 | -1 | 251 | 6.4 | 9.7 | 0.00 | 0.48 | 0.00 | 70 | 1020.9 |
| 20260507115757 | -1 | 251 | 6.4 | 9.7 | 0.00 | 0.48 | 0.00 | 71 | 1020.8 |
| 20260507115550 | -1 | 251 | 6.4 | 9.7 | 0.00 | 0.48 | 0.00 | 71 | 1020.9 |
| 20260507115344 | -1 | 252 | 6.4 | 9.7 | 0.00 | 0.48 | 0.00 | 72 | 1020.8 |
| 20260507115135 | -1 | 252 | 6.4 | 11.3 | 0.00 | 0.48 | 0.00 | 72 | 1020.8 |
| 20260507114931 | -1 | 252 | 6.4 | 11.3 | 0.00 | 0.48 | 0.00 | 72 | 1020.8 |
| 20260507114723 | -1 | 252 | 6.4 | 11.3 | 0.00 | 0.48 | 0.00 | 72 | 1020.9 |
| 20260507114523 | -1 | 252 | 6.4 | 11.3 | 0.00 | 0.48 | 0.00 | 72 | 1020.9 |
| 20260507114317 | -1 | 251 | 6.4 | 11.3 | 0.00 | 0.48 | 0.00 | 73 | 1020.9 |
| 20260507114109 | -1 | 251 | 6.4 | 11.3 | 0.00 | 0.48 | 0.00 | 73 | 1020.9 |
| 20260507113910 | -1 | 250 | 4.8 | 11.3 | 0.00 | 0.48 | 0.00 | 74 | 1020.9 |
| 20260507113348 | -2 | 250 | 4.8 | 11.3 | 0.00 | 0.48 | 0.00 | 75 | 1020.9 |
| 20260507113143 | -2 | 246 | 4.8 | 9.7 | 0.00 | 0.48 | 0.00 | 76 | 1020.9 |
| 20260507112932 | -2 | 246 | 4.8 | 8.0 | 0.00 | 0.48 | 0.00 | 77 | 1020.8 |
| 20260507112728 | -2 | 246 | 4.8 | 8.0 | 0.00 | 0.48 | 0.00 | 77 | 1020.8 |
| 20260507112524 | -2 | 246 | 4.8 | 8.0 | 0.00 | 0.48 | 0.00 | 77 | 1020.8 |
| 20260507112314 | -2 | 246 | 4.8 | 8.0 | 0.00 | 0.48 | 0.00 | 77 | 1020.8 |
| 20260507112113 | -2 | 246 | 4.8 | 8.0 | 0.00 | 0.48 | 0.00 | 77 | 1020.9 |
| 20260507111544 | -2 | 246 | 4.8 | 8.0 | 0.00 | 0.48 | 0.00 | 77 | 1020.9 |
| 20260507110654 | -2 | 246 | 4.8 | 6.4 | 0.00 | 0.48 | 0.00 | 79 | 1020.9 |
| 20260507110454 | -2 | 246 | 4.8 | 6.4 | 0.00 | 0.48 | 0.00 | 80 | 1020.9 |
| 20260507110252 | -2 | 246 | 4.8 | 6.4 | 0.00 | 0.48 | 0.00 | 80 | 1020.9 |
| 20260507105731 | -3 | 246 | 4.8 | 8.0 | 0.00 | 0.48 | 0.00 | 81 | 1020.9 |
| 20260507105211 | -3 | 246 | 4.8 | 8.0 | 0.00 | 0.48 | 0.00 | 82 | 1020.8 |
| 20260507105012 | -3 | 246 | 4.8 | 8.0 | 0.00 | 0.48 | 0.00 | 82 | 1020.8 |
| 20260507104811 | -3 | 246 | 4.8 | 8.0 | 0.00 | 0.48 | 0.00 | 83 | 1020.7 |
| 20260507104604 | -3 | 246 | 4.8 | 8.0 | 0.00 | 0.48 | 0.00 | 83 | 1020.8 |
| 20260507104359 | -3 | 246 | 6.4 | 8.0 | 0.00 | 0.48 | 0.00 | 83 | 1020.7 |
| 20260507103831 | -3 | 246 | 4.8 | 8.0 | 0.00 | 0.48 | 0.00 | 83 | 1020.8 |
| 20260507103304 | -3 | 246 | 4.8 | 8.0 | 0.00 | 0.48 | 0.00 | 84 | 1020.8 |
| 20260507103102 | -3 | 246 | 4.8 | 8.0 | 0.00 | 0.48 | 0.00 | 83 | 1020.9 |
| 20260507102902 | -3 | 246 | 4.8 | 8.0 | 0.00 | 0.48 | 0.00 | 84 | 1020.9 |
| 20260507102702 | -3 | 246 | 4.8 | 8.0 | 0.00 | 0.48 | 0.00 | 84 | 1020.9 |
| 20260507102501 | -3 | 246 | 4.8 | 8.0 | 0.00 | 0.48 | 0.00 | 83 | 1021.0 |
| 20260507102257 | -3 | 246 | 4.8 | 8.0 | 0.00 | 0.48 | 0.00 | 83 | 1021.0 |
| 20260507101734 | -3 | 246 | 4.8 | 6.4 | 0.00 | 0.48 | 0.00 | 83 | 1021.0 |
| 20260507100850 | -3 | 246 | 3.2 | 8.0 | 0.00 | 0.48 | 0.00 | 83 | 1021.2 |
| 20260507100644 | -3 | 246 | 3.2 | 8.0 | 0.00 | 0.48 | 0.00 | 83 | 1021.2 |
| 20260507100445 | -3 | 246 | 3.2 | 8.0 | 0.00 | 0.48 | 0.00 | 83 | 1021.2 |
| 20260507095605 | -3 | 246 | 4.8 | 8.0 | 0.00 | 0.48 | 0.00 | 84 | 1021.2 |
| 20260507095406 | -3 | 246 | 4.8 | 8.0 | 0.00 | 0.48 | 0.00 | 84 | 1021.2 |
| 20260507095205 | -3 | 246 | 4.8 | 8.0 | 0.00 | 0.48 | 0.00 | 84 | 1021.2 |
| 20260507095003 | -3 | 246 | 4.8 | 8.0 | 0.00 | 0.48 | 0.00 | 84 | 1021.1 |
| 20260507094801 | -3 | 246 | 4.8 | 8.0 | 0.00 | 0.48 | 0.00 | 84 | 1021.0 |
| 20260507094559 | -3 | 246 | 4.8 | 8.0 | 0.00 | 0.48 | 0.00 | 84 | 1021.0 |
| 20260507094359 | -3 | 246 | 4.8 | 8.0 | 0.00 | 0.48 | 0.00 | 84 | 1020.9 |
| 20260507094153 | -3 | 246 | 4.8 | 8.0 | 0.00 | 0.48 | 0.00 | 84 | 1021.0 |
| 20260507093623 | -3 | 246 | 4.8 | 8.0 | 0.00 | 0.48 | 0.00 | 84 | 1021.0 |
| 20260507093414 | -3 | 246 | 3.2 | 8.0 | 0.00 | 0.48 | 0.00 | 84 | 1021.0 |
| 20260507093207 | -3 | 246 | 3.2 | 8.0 | 0.00 | 0.48 | 0.00 | 84 | 1021.0 |
| 20260507093005 | -3 | 246 | 4.8 | 8.0 | 0.00 | 0.48 | 0.00 | 84 | 1021.0 |
| 20260507092803 | -3 | 246 | 4.8 | 8.0 | 0.00 | 0.48 | 0.00 | 84 | 1021.1 |
| 20260507091916 | -3 | 246 | 3.2 | 6.4 | 0.00 | 0.48 | 0.00 | 83 | 1021.2 |
| 20260507091705 | -3 | 245 | 3.2 | 6.4 | 0.00 | 0.48 | 0.00 | 82 | 1021.2 |
| 20260507091458 | -3 | 245 | 3.2 | 6.4 | 0.00 | 0.48 | 0.00 | 82 | 1021.2 |
| 20260507091258 | -3 | 246 | 3.2 | 6.4 | 0.00 | 0.48 | 0.00 | 82 | 1021.3 |
| 20260507091055 | -3 | 245 | 4.8 | 8.0 | 0.00 | 0.48 | 0.00 | 81 | 1021.2 |
| 20260507090845 | -2 | 245 | 4.8 | 8.0 | 0.00 | 0.48 | 0.00 | 80 | 1021.3 |
| 20260507090641 | -2 | 245 | 4.8 | 8.0 | 0.00 | 0.48 | 0.00 | 80 | 1021.3 |
| 20260507090122 | -2 | 245 | 4.8 | 11.3 | 0.00 | 0.48 | 0.00 | 79 | 1021.3 |
| 20260507085913 | -2 | 245 | 4.8 | 11.3 | 0.00 | 0.48 | 0.00 | 79 | 1021.4 |
| 20260507085705 | -2 | 244 | 4.8 | 11.3 | 0.00 | 0.48 | 0.00 | 78 | 1021.5 |
| 20260507085457 | -2 | 244 | 4.8 | 11.3 | 0.00 | 0.48 | 0.00 | 78 | 1021.5 |
| 20260507085247 | -2 | 244 | 6.4 | 11.3 | 0.00 | 0.48 | 0.00 | 78 | 1021.5 |
| 20260507085044 | -2 | 244 | 6.4 | 11.3 | 0.00 | 0.48 | 0.00 | 79 | 1021.5 |
| 20260507084843 | -2 | 244 | 4.8 | 11.3 | 0.00 | 0.48 | 0.00 | 79 | 1021.3 |
| 20260507084641 | -2 | 244 | 6.4 | 11.3 | 0.00 | 0.48 | 0.00 | 80 | 1021.4 |
| 20260507084436 | -2 | 244 | 4.8 | 11.3 | 0.00 | 0.48 | 0.00 | 81 | 1021.3 |
| 20260507084229 | -2 | 244 | 4.8 | 11.3 | 0.00 | 0.48 | 0.00 | 81 | 1021.3 |
| 20260507084024 | -2 | 249 | 4.8 | 9.7 | 0.00 | 0.48 | 0.00 | 82 | 1021.3 |
| 20260507083819 | -2 | 249 | 4.8 | 9.7 | 0.00 | 0.48 | 0.00 | 82 | 1021.3 |
| 20260507083250 | -2 | 248 | 4.8 | 8.0 | 0.00 | 0.48 | 0.00 | 83 | 1021.5 |
| 20260507083044 | -2 | 248 | 4.8 | 8.0 | 0.00 | 0.48 | 0.00 | 83 | 1021.4 |
| 20260507082845 | -2 | 248 | 4.8 | 8.0 | 0.00 | 0.48 | 0.00 | 83 | 1021.5 |
| 20260507082639 | -2 | 248 | 4.8 | 8.0 | 0.00 | 0.48 | 0.00 | 83 | 1021.5 |
| 20260507082439 | -2 | 248 | 4.8 | 8.0 | 0.00 | 0.48 | 0.00 | 83 | 1021.5 |
| 20260507082230 | -2 | 248 | 4.8 | 8.0 | 0.00 | 0.48 | 0.00 | 84 | 1021.4 |
| 20260507081657 | -2 | 248 | 4.8 | 8.0 | 0.00 | 0.48 | 0.00 | 85 | 1021.6 |
| 20260507081449 | -3 | 248 | 4.8 | 8.0 | 0.00 | 0.48 | 0.00 | 85 | 1021.6 |
| 20260507081243 | -3 | 248 | 4.8 | 6.4 | 0.00 | 0.48 | 0.00 | 85 | 1021.6 |
| 20260507080843 | -3 | 248 | 3.2 | 6.4 | 0.00 | 0.48 | 0.00 | 86 | 1021.6 |
| 20260507080638 | -3 | 248 | 3.2 | 6.4 | 0.00 | 0.48 | 0.00 | 86 | 1021.5 |
| 20260507080104 | -3 | 248 | 3.2 | 11.3 | 0.00 | 0.48 | 0.00 | 85 | 1021.6 |
| 20260507075853 | -3 | 248 | 3.2 | 11.3 | 0.00 | 0.48 | 0.00 | 85 | 1021.6 |
| 20260507075647 | -3 | 248 | 3.2 | 11.3 | 0.00 | 0.48 | 0.00 | 85 | 1021.5 |
| 20260507075439 | -2 | 248 | 4.8 | 11.3 | 0.00 | 0.48 | 0.00 | 85 | 1021.6 |
| 20260507075234 | -2 | 248 | 4.8 | 11.3 | 0.00 | 0.48 | 0.00 | 85 | 1021.6 |
| 20260507075035 | -2 | 248 | 4.8 | 11.3 | 0.00 | 0.48 | 0.00 | 85 | 1021.6 |
| 20260507074829 | -2 | 248 | 4.8 | 11.3 | 0.00 | 0.48 | 0.00 | 85 | 1021.6 |
| 20260507074625 | -2 | 248 | 4.8 | 11.3 | 0.00 | 0.48 | 0.00 | 86 | 1021.7 |
| 20260507074420 | -2 | 248 | 4.8 | 11.3 | 0.00 | 0.48 | 0.00 | 86 | 1021.6 |
| 20260507074218 | -2 | 247 | 4.8 | 11.3 | 0.00 | 0.48 | 0.00 | 86 | 1021.6 |
| 20260507074011 | -2 | 247 | 4.8 | 9.7 | 0.00 | 0.48 | 0.00 | 86 | 1021.7 |
| 20260507073811 | -2 | 248 | 4.8 | 9.7 | 0.00 | 0.48 | 0.00 | 86 | 1021.7 |
| 20260507073612 | -2 | 247 | 4.8 | 9.7 | 0.00 | 0.48 | 0.00 | 86 | 1021.7 |
| 20260507073410 | -2 | 247 | 4.8 | 9.7 | 0.00 | 0.48 | 0.00 | 87 | 1021.7 |
| 20260507073210 | -2 | 247 | 4.8 | 12.9 | 0.00 | 0.48 | 0.00 | 88 | 1021.7 |
| 20260507073004 | -2 | 247 | 4.8 | 12.9 | 0.00 | 0.48 | 0.00 | 88 | 1021.7 |
| 20260507072755 | -2 | 247 | 6.4 | 12.9 | 0.00 | 0.48 | 0.00 | 89 | 1021.7 |
| 20260507072548 | -2 | 256 | 6.4 | 12.9 | 0.00 | 0.48 | 0.00 | 89 | 1021.7 |
| 20260507072041 | -2 | 255 | 6.4 | 12.9 | 0.00 | 0.48 | 0.00 | 91 | 1021.8 |
| 20260507071833 | -2 | 255 | 6.4 | 12.9 | 0.00 | 0.48 | 0.00 | 91 | 1021.7 |
| 20260507071632 | -2 | 254 | 6.4 | 12.9 | 0.00 | 0.48 | 0.00 | 92 | 1021.7 |
| 20260507071428 | -2 | 240 | 4.8 | 12.9 | 0.00 | 0.48 | 0.00 | 93 | 1021.8 |
| 20260507071228 | -3 | 231 | 4.8 | 9.7 | 0.00 | 0.48 | 0.00 | 93 | 1021.8 |
| 20260507071023 | -3 | 229 | 4.8 | 8.0 | 0.00 | 0.48 | 0.00 | 93 | 1021.9 |
| 20260507070819 | -3 | 229 | 4.8 | 8.0 | 0.00 | 0.48 | 0.00 | 93 | 1021.8 |
| 20260507070610 | -3 | 229 | 4.8 | 8.0 | 0.00 | 0.48 | 0.00 | 93 | 1021.8 |
| 20260507065723 | -3 | 229 | 3.2 | 6.4 | 0.00 | 0.48 | 0.00 | 94 | 1021.8 |
| 20260507065515 | -3 | 229 | 3.2 | 6.4 | 0.00 | 0.48 | 0.00 | 94 | 1021.8 |
| 20260507064954 | -3 | 229 | 1.6 | 6.4 | 0.00 | 0.48 | 0.00 | 94 | 1021.8 |
| 20260507064745 | -3 | 229 | 1.6 | 4.8 | 0.00 | 0.48 | 0.00 | 94 | 1021.9 |
| 20260507064541 | -4 | 229 | 1.6 | 4.8 | 0.00 | 0.48 | 0.00 | 94 | 1022.0 |
| 20260507064341 | -4 | 229 | 1.6 | 4.8 | 0.00 | 0.48 | 0.00 | 94 | 1022.0 |
| 20260507064134 | -4 | 229 | 1.6 | 4.8 | 0.00 | 0.48 | 0.00 | 94 | 1021.9 |
| 20260507063924 | -4 | 229 | 1.6 | 4.8 | 0.00 | 0.48 | 0.00 | 94 | 1022.0 |
| 20260507062735 | -4 | 229 | 1.6 | 4.8 | 0.00 | 0.48 | 0.00 | 93 | 1021.8 |
| 20260507062536 | -4 | 229 | 0.0 | 4.8 | 0.00 | 0.48 | 0.00 | 93 | 1021.9 |
| 20260507062329 | -4 | 229 | 0.0 | 4.8 | 0.00 | 0.48 | 0.00 | 93 | 1021.9 |
| 20260507062125 | -4 | 229 | 0.0 | 3.2 | 0.00 | 0.48 | 0.00 | 93 | 1022.0 |
| 20260507061926 | -5 | 229 | 0.0 | 3.2 | 0.00 | 0.48 | 0.00 | 93 | 1021.9 |
| 20260507061356 | -4 | 229 | 0.0 | 1.6 | 0.00 | 0.48 | 0.00 | 93 | 1021.9 |
| 20260507061153 | -4 | 229 | 0.0 | 1.6 | 0.00 | 0.48 | 0.00 | 93 | 1021.9 |
| 20260507060945 | -4 | 229 | 0.0 | 1.6 | 0.00 | 0.48 | 0.00 | 93 | 1021.8 |
| 20260507060420 | -4 | 229 | 0.0 | 1.6 | 0.00 | 0.48 | 0.00 | 93 | 1021.8 |
| 20260507060213 | -4 | 229 | 0.0 | 1.6 | 0.00 | 0.48 | 0.00 | 93 | 1021.8 |
| 20260507060008 | -4 | 229 | 0.0 | 1.6 | 0.00 | 0.48 | 0.48 | 93 | 1021.7 |
| 20260507055800 | -3 | 229 | 0.0 | 1.6 | 0.00 | 0.48 | 0.48 | 93 | 1021.7 |
| 20260507055559 | -3 | 229 | 0.0 | 1.6 | 0.00 | 0.48 | 0.48 | 93 | 1021.7 |
| 20260507054724 | -3 | 229 | 0.0 | 0.0 | 0.00 | 0.48 | 0.48 | 93 | 1021.5 |
| 20260507054518 | -3 | 229 | 0.0 | 0.0 | 0.00 | 0.48 | 0.48 | 93 | 1021.5 |
| 20260507054309 | -3 | 229 | 1.6 | 6.4 | 0.00 | 0.48 | 0.48 | 93 | 1021.6 |
| 20260507054105 | -3 | 229 | 0.0 | 6.4 | 0.00 | 0.48 | 0.48 | 93 | 1021.5 |
| 20260507053858 | -2 | 229 | 0.0 | 6.4 | 0.00 | 0.48 | 0.48 | 93 | 1021.5 |
| 20260507053651 | -2 | 229 | 0.0 | 6.4 | 0.00 | 0.48 | 0.48 | 94 | 1021.6 |
| 20260507053449 | -2 | 229 | 0.0 | 6.4 | 0.00 | 0.48 | 0.48 | 94 | 1021.6 |
| 20260507053246 | -2 | 229 | 0.0 | 1.6 | 0.00 | 0.48 | 0.48 | 94 | 1021.6 |
| 20260507053045 | -2 | 229 | 0.0 | 0.0 | 0.00 | 0.48 | 0.48 | 94 | 1021.7 |
| 20260507052835 | -2 | 229 | 0.0 | 0.0 | 0.00 | 0.48 | 0.48 | 94 | 1021.6 |
| 20260507052629 | -2 | 229 | 1.6 | 6.4 | 0.00 | 0.48 | 0.48 | 93 | 1021.6 |
| 20260507052430 | -2 | 229 | 1.6 | 6.4 | 0.00 | 0.48 | 0.48 | 94 | 1021.6 |
| 20260507051909 | -2 | 229 | 1.6 | 6.4 | 0.00 | 0.48 | 0.48 | 94 | 1021.5 |
| 20260507051700 | -2 | 229 | 1.6 | 6.4 | 0.00 | 0.48 | 0.48 | 94 | 1021.6 |
| 20260507051139 | -2 | 229 | 0.0 | 3.2 | 0.00 | 0.48 | 0.48 | 94 | 1021.5 |
| 20260507050932 | -2 | 229 | 0.0 | 3.2 | 0.00 | 0.48 | 0.48 | 94 | 1021.6 |
| 20260507050729 | -2 | 229 | 0.0 | 1.6 | 0.00 | 0.48 | 0.48 | 94 | 1021.6 |
| 20260507050518 | -2 | 229 | 0.0 | 4.8 | 0.00 | 0.48 | 0.48 | 94 | 1021.6 |
| 20260507050316 | -2 | 229 | 0.0 | 4.8 | 0.00 | 0.48 | 0.48 | 94 | 1021.6 |
| 20260507050105 | -2 | 229 | 0.0 | 1.6 | 0.00 | 0.48 | 0.48 | 94 | 1021.5 |
| 20260507045538 | -2 | 229 | 1.6 | 8.0 | 0.00 | 0.48 | 0.48 | 93 | 1021.5 |
| 20260507045012 | -2 | 229 | 1.6 | 8.0 | 0.00 | 0.48 | 0.48 | 93 | 1021.5 |
| 20260507044806 | -2 | 230 | 1.6 | 9.7 | 0.00 | 0.48 | 0.48 | 93 | 1021.5 |
| 20260507043931 | -2 | 230 | 3.2 | 9.7 | 0.00 | 0.48 | 0.48 | 93 | 1021.3 |
| 20260507043722 | -2 | 225 | 3.2 | 9.7 | 0.00 | 0.48 | 0.48 | 93 | 1021.5 |
| 20260507042827 | -2 | 224 | 1.6 | 9.7 | 0.00 | 0.48 | 0.48 | 93 | 1021.4 |
| 20260507042626 | -2 | 223 | 1.6 | 9.7 | 0.00 | 0.48 | 0.48 | 93 | 1021.5 |
| 20260507042420 | -2 | 223 | 1.6 | 9.7 | 0.00 | 0.48 | 0.48 | 93 | 1021.5 |
| 20260507042210 | -2 | 228 | 1.6 | 9.7 | 0.00 | 0.48 | 0.48 | 92 | 1021.4 |
| 20260507042005 | -2 | 227 | 1.6 | 9.7 | 0.00 | 0.48 | 0.48 | 93 | 1021.5 |
| 20260507041758 | -2 | 227 | 1.6 | 9.7 | 0.00 | 0.48 | 0.48 | 92 | 1021.5 |
| 20260507041227 | -2 | 226 | 0.0 | 8.0 | 0.00 | 0.48 | 0.48 | 92 | 1021.6 |
| 20260507041027 | -2 | 226 | 0.0 | 8.0 | 0.00 | 0.48 | 0.48 | 92 | 1021.5 |
| 20260507040821 | -2 | 229 | 0.0 | 8.0 | 0.00 | 0.48 | 0.48 | 92 | 1021.5 |
| 20260507040614 | -2 | 229 | 0.0 | 8.0 | 0.00 | 0.48 | 0.48 | 92 | 1021.5 |
| 20260507040048 | -2 | 229 | 1.6 | 9.7 | 0.00 | 0.48 | 0.48 | 92 | 1021.5 |
| 20260507035848 | -2 | 229 | 1.6 | 9.7 | 0.00 | 0.48 | 0.48 | 91 | 1021.5 |
| 20260507035323 | -2 | 233 | 1.6 | 9.7 | 0.00 | 0.48 | 0.48 | 91 | 1021.4 |
| 20260507034803 | -2 | 216 | 0.0 | 9.7 | 0.00 | 0.48 | 0.48 | 91 | 1021.4 |
| 20260507034553 | -2 | 224 | 0.0 | 9.7 | 0.00 | 0.48 | 0.48 | 91 | 1021.4 |
| 20260507034347 | -2 | 225 | 0.0 | 9.7 | 0.00 | 0.48 | 0.48 | 91 | 1021.4 |
| 20260507034138 | -1 | 206 | 0.0 | 9.7 | 0.00 | 0.48 | 0.48 | 91 | 1021.4 |
| 20260507033928 | -1 | 206 | 0.0 | 6.4 | 0.00 | 0.48 | 0.48 | 91 | 1021.4 |
| 20260507033727 | -1 | 206 | 0.0 | 6.4 | 0.00 | 0.48 | 0.48 | 91 | 1021.4 |
| 20260507033523 | -1 | 206 | 0.0 | 6.4 | 0.00 | 0.48 | 0.48 | 91 | 1021.4 |
| 20260507032958 | -1 | 207 | 0.0 | 11.3 | 0.00 | 0.48 | 0.48 | 90 | 1021.4 |
| 20260507032750 | -1 | 207 | 0.0 | 11.3 | 0.00 | 0.48 | 0.48 | 90 | 1021.3 |
| 20260507032542 | -1 | 254 | 1.6 | 11.3 | 0.00 | 0.48 | 0.48 | 90 | 1021.3 |
| 20260507032340 | -1 | 254 | 1.6 | 11.3 | 0.00 | 0.48 | 0.48 | 90 | 1021.3 |
| 20260507032131 | -1 | 254 | 1.6 | 11.3 | 0.00 | 0.48 | 0.48 | 90 | 1021.3 |
| 20260507031922 | -1 | 253 | 0.0 | 11.3 | 0.00 | 0.48 | 0.48 | 90 | 1021.2 |
| 20260507031715 | -1 | 257 | 1.6 | 11.3 | 0.00 | 0.48 | 0.48 | 90 | 1021.2 |
| 20260507031505 | -1 | 204 | 0.0 | 6.4 | 0.00 | 0.48 | 0.48 | 90 | 1021.2 |
| 20260507031303 | -1 | 205 | 0.0 | 1.6 | 0.00 | 0.48 | 0.48 | 90 | 1021.1 |
| 20260507031102 | -1 | 206 | 0.0 | 0.0 | 0.00 | 0.48 | 0.48 | 90 | 1021.0 |
| 20260507030855 | -1 | 205 | 1.6 | 8.0 | 0.00 | 0.48 | 0.48 | 90 | 1021.0 |
| 20260507030326 | -1 | 207 | 1.6 | 9.7 | 0.00 | 0.48 | 0.48 | 89 | 1021.0 |
| 20260507030118 | -1 | 207 | 1.6 | 9.7 | 0.00 | 0.48 | 0.48 | 89 | 1021.0 |
| 20260507025913 | -1 | 207 | 1.6 | 9.7 | 0.00 | 0.48 | 0.48 | 89 | 1020.9 |
| 20260507025703 | -1 | 207 | 1.6 | 9.7 | 0.00 | 0.48 | 0.48 | 89 | 1020.9 |
| 20260507025145 | -1 | 207 | 1.6 | 9.7 | 0.00 | 0.48 | 0.48 | 89 | 1020.8 |
| 20260507024614 | -1 | 212 | 1.6 | 8.0 | 0.00 | 0.48 | 0.48 | 89 | 1020.9 |
| 20260507024406 | -1 | 211 | 0.0 | 4.8 | 0.00 | 0.48 | 0.48 | 88 | 1020.9 |
| 20260507024157 | -1 | 211 | 0.0 | 1.6 | 0.00 | 0.48 | 0.48 | 88 | 1020.8 |
| 20260507023627 | -1 | 211 | 0.0 | 6.4 | 0.00 | 0.48 | 0.48 | 88 | 1020.8 |
| 20260507023420 | -1 | 211 | 1.6 | 6.4 | 0.00 | 0.48 | 0.48 | 88 | 1020.8 |
| 20260507023221 | -1 | 211 | 1.6 | 6.4 | 0.00 | 0.48 | 0.48 | 87 | 1020.7 |
| 20260507022333 | -1 | 211 | 0.0 | 9.7 | 0.00 | 0.48 | 0.48 | 87 | 1020.7 |
| 20260507022132 | -1 | 211 | 0.0 | 9.7 | 0.00 | 0.48 | 0.48 | 86 | 1020.8 |
| 20260507021613 | 0 | 212 | 0.0 | 9.7 | 0.00 | 0.48 | 0.48 | 86 | 1020.8 |
| 20260507021409 | 0 | 212 | 0.0 | 9.7 | 0.00 | 0.48 | 0.48 | 85 | 1020.7 |
| 20260507020848 | 0 | 213 | 1.6 | 9.7 | 0.00 | 0.48 | 0.48 | 84 | 1020.6 |
| 20260507020319 | 0 | 202 | 0.0 | 6.4 | 0.00 | 0.48 | 0.48 | 83 | 1020.5 |
| 20260507020111 | 0 | 202 | 0.0 | 8.0 | 0.00 | 0.48 | 0.48 | 83 | 1020.6 |
| 20260507015550 | 0 | 204 | 1.6 | 8.0 | 0.00 | 0.48 | 0.48 | 82 | 1020.5 |
| 20260507015346 | 0 | 204 | 1.6 | 8.0 | 0.00 | 0.48 | 0.48 | 82 | 1020.5 |
| 20260507015137 | 0 | 204 | 1.6 | 11.3 | 0.00 | 0.48 | 0.48 | 81 | 1020.5 |
| 20260507014931 | 0 | 204 | 1.6 | 11.3 | 0.00 | 0.48 | 0.48 | 81 | 1020.5 |
| 20260507014056 | 1 | 216 | 1.6 | 12.9 | 0.00 | 0.48 | 0.48 | 79 | 1020.5 |
| 20260507013852 | 1 | 213 | 1.6 | 12.9 | 0.00 | 0.48 | 0.48 | 79 | 1020.6 |
| 20260507013649 | 1 | 192 | 1.6 | 12.9 | 0.00 | 0.48 | 0.48 | 79 | 1020.6 |
| 20260507013443 | 1 | 192 | 3.2 | 12.9 | 0.00 | 0.48 | 0.48 | 78 | 1020.6 |
| 20260507013242 | 1 | 192 | 3.2 | 12.9 | 0.00 | 0.48 | 0.48 | 78 | 1020.5 |
| 20260507012715 | 1 | 171 | 3.2 | 12.9 | 0.00 | 0.48 | 0.48 | 77 | 1020.4 |
| 20260507012510 | 1 | 176 | 3.2 | 12.9 | 0.00 | 0.48 | 0.48 | 77 | 1020.4 |
| 20260507012301 | 1 | 194 | 1.6 | 12.9 | 0.00 | 0.48 | 0.48 | 77 | 1020.4 |
| 20260507012059 | 1 | 169 | 1.6 | 11.3 | 0.00 | 0.48 | 0.48 | 77 | 1020.5 |
| 20260507011532 | 2 | 169 | 3.2 | 11.3 | 0.00 | 0.48 | 0.48 | 77 | 1020.5 |
| 20260507011327 | 2 | 166 | 3.2 | 11.3 | 0.00 | 0.48 | 0.48 | 76 | 1020.5 |
| 20260507011120 | 2 | 163 | 1.6 | 11.3 | 0.00 | 0.48 | 0.48 | 76 | 1020.5 |
| 20260507010237 | 2 | 184 | 3.2 | 16.1 | 0.00 | 0.48 | 0.48 | 76 | 1020.4 |
| 20260507010026 | 2 | 184 | 3.2 | 16.1 | 0.00 | 0.48 | 0.48 | 77 | 1020.4 |
| 20260507005823 | 2 | 190 | 3.2 | 16.1 | 0.00 | 0.48 | 0.48 | 76 | 1020.4 |
| 20260507005617 | 2 | 206 | 3.2 | 16.1 | 0.00 | 0.48 | 0.48 | 76 | 1020.4 |
| 20260507005409 | 2 | 206 | 4.8 | 16.1 | 0.00 | 0.48 | 0.48 | 76 | 1020.4 |
| 20260507004848 | 2 | 205 | 3.2 | 16.1 | 0.00 | 0.48 | 0.48 | 77 | 1020.3 |
| 20260507004647 | 2 | 182 | 3.2 | 16.1 | 0.00 | 0.48 | 0.48 | 76 | 1020.4 |
| 20260507004438 | 2 | 182 | 3.2 | 16.1 | 0.00 | 0.48 | 0.48 | 76 | 1020.3 |
| 20260507003914 | 2 | 186 | 4.8 | 16.1 | 0.00 | 0.48 | 0.48 | 76 | 1020.2 |
| 20260507003709 | 2 | 173 | 4.8 | 16.1 | 0.00 | 0.48 | 0.48 | 75 | 1020.2 |
| 20260507003503 | 2 | 175 | 4.8 | 16.1 | 0.00 | 0.48 | 0.48 | 75 | 1020.3 |
| 20260507003303 | 2 | 164 | 4.8 | 16.1 | 0.00 | 0.48 | 0.48 | 74 | 1020.3 |
| 20260507003054 | 2 | 195 | 3.2 | 16.1 | 0.00 | 0.48 | 0.48 | 75 | 1020.2 |
| 20260507002849 | 2 | 162 | 3.2 | 9.7 | 0.00 | 0.48 | 0.48 | 75 | 1020.2 |
| 20260507002644 | 2 | 162 | 3.2 | 11.3 | 0.00 | 0.48 | 0.48 | 75 | 1020.3 |
| 20260507002436 | 2 | 191 | 1.6 | 11.3 | 0.00 | 0.48 | 0.48 | 75 | 1020.3 |
| 20260507002226 | 2 | 192 | 3.2 | 11.3 | 0.00 | 0.48 | 0.48 | 76 | 1020.2 |
| 20260507002016 | 2 | 187 | 3.2 | 11.3 | 0.00 | 0.48 | 0.48 | 76 | 1020.3 |
| 20260507001806 | 2 | 186 | 3.2 | 11.3 | 0.00 | 0.48 | 0.48 | 76 | 1020.3 |
| 20260507001559 | 2 | 185 | 4.8 | 11.3 | 0.00 | 0.51 | 0.48 | 76 | 1020.4 |
| 20260507001350 | 2 | 185 | 3.2 | 11.3 | 0.00 | 0.51 | 0.48 | 77 | 1020.3 |
| 20260507001141 | 2 | 244 | 3.2 | 11.3 | 0.00 | 0.51 | 0.48 | 77 | 1020.4 |
| 20260507000933 | 2 | 248 | 3.2 | 11.3 | 0.00 | 0.51 | 0.48 | 75 | 1020.4 |
| 20260507000733 | 2 | 250 | 3.2 | 12.9 | 0.00 | 0.51 | 0.48 | 77 | 1020.4 |
| 20260507000532 | 2 | 248 | 3.2 | 12.9 | 0.00 | 0.51 | 0.48 | 77 | 1020.4 |
| 20260507000010 | 2 | 248 | 6.4 | 12.9 | 0.00 | 0.51 | 0.48 | 75 | 1020.5 |
| 20260506235810 | 2 | 254 | 4.8 | 12.9 | 0.00 | 0.51 | 0.48 | 74 | 1020.4 |
| 20260506235605 | 2 | 254 | 6.4 | 12.9 | 0.00 | 0.51 | 0.48 | 74 | 1020.4 |
| 20260506235357 | 2 | 246 | 6.4 | 12.9 | 0.00 | 0.51 | 0.48 | 75 | 1020.4 |
| 20260506235154 | 2 | 244 | 6.4 | 12.9 | 0.00 | 0.51 | 0.48 | 76 | 1020.3 |
| 20260506234953 | 2 | 197 | 6.4 | 12.9 | 0.00 | 0.51 | 0.48 | 76 | 1020.3 |
| 20260506234751 | 2 | 251 | 6.4 | 12.9 | 0.00 | 0.51 | 0.48 | 76 | 1020.3 |
| 20260506234223 | 2 | 222 | 6.4 | 12.9 | 0.00 | 0.51 | 0.48 | 76 | 1020.2 |
| 20260506233708 | 1 | 247 | 4.8 | 9.7 | 0.00 | 0.51 | 0.48 | 75 | 1020.2 |
| 20260506233507 | 1 | 246 | 4.8 | 9.7 | 0.00 | 0.51 | 0.48 | 76 | 1020.3 |
| 20260506233300 | 1 | 249 | 4.8 | 9.7 | 0.00 | 0.51 | 0.48 | 76 | 1020.3 |
| 20260506233059 | 1 | 247 | 3.2 | 9.7 | 0.00 | 0.53 | 0.48 | 78 | 1020.3 |
| 20260506232857 | 1 | 276 | 4.8 | 9.7 | 0.00 | 0.53 | 0.48 | 77 | 1020.2 |
| 20260506232652 | 1 | 276 | 4.8 | 9.7 | 0.00 | 0.53 | 0.48 | 77 | 1020.4 |
| 20260506232444 | 1 | 277 | 4.8 | 9.7 | 0.00 | 0.53 | 0.48 | 75 | 1020.4 |
| 20260506232237 | 1 | 249 | 4.8 | 9.7 | 0.00 | 0.53 | 0.48 | 76 | 1020.4 |
| 20260506232037 | 1 | 249 | 4.8 | 9.7 | 0.00 | 0.53 | 0.48 | 77 | 1020.4 |
| 20260506231827 | 1 | 248 | 3.2 | 9.7 | 0.00 | 0.53 | 0.48 | 79 | 1020.4 |
| 20260506231625 | 1 | 248 | 3.2 | 9.7 | 0.00 | 0.53 | 0.48 | 79 | 1020.5 |
| 20260506231424 | 1 | 263 | 3.2 | 8.0 | 0.00 | 0.53 | 0.48 | 80 | 1020.4 |
| 20260506231223 | 1 | 263 | 3.2 | 8.0 | 0.00 | 0.53 | 0.48 | 79 | 1020.3 |
| 20260506230649 | 1 | 282 | 4.8 | 9.7 | 0.00 | 0.53 | 0.48 | 81 | 1020.3 |
| 20260506230450 | 1 | 282 | 4.8 | 9.7 | 0.00 | 0.53 | 0.48 | 79 | 1020.3 |
| 20260506225923 | 1 | 271 | 4.8 | 9.7 | 0.00 | 0.56 | 0.48 | 79 | 1020.2 |
| 20260506225717 | 1 | 277 | 3.2 | 9.7 | 0.00 | 0.56 | 0.48 | 79 | 1020.3 |
| 20260506225510 | 1 | 258 | 3.2 | 9.7 | 0.00 | 0.56 | 0.48 | 78 | 1020.3 |
| 20260506225307 | 1 | 258 | 4.8 | 9.7 | 0.00 | 0.56 | 0.48 | 78 | 1020.2 |
| 20260506225103 | 1 | 257 | 4.8 | 9.7 | 0.00 | 0.56 | 0.48 | 79 | 1020.2 |
| 20260506224856 | 1 | 290 | 4.8 | 9.7 | 0.00 | 0.56 | 0.48 | 79 | 1020.2 |
| 20260506224650 | 1 | 329 | 4.8 | 11.3 | 0.00 | 0.56 | 0.48 | 79 | 1020.3 |
| 20260506224136 | 1 | 250 | 4.8 | 11.3 | 0.00 | 0.56 | 0.48 | 76 | 1020.3 |
| 20260506223931 | 1 | 281 | 4.8 | 11.3 | 0.00 | 0.56 | 0.48 | 76 | 1020.3 |
| 20260506223722 | 1 | 289 | 4.8 | 11.3 | 0.00 | 0.56 | 0.48 | 78 | 1020.4 |
| 20260506223516 | 1 | 293 | 3.2 | 16.1 | 0.00 | 0.56 | 0.48 | 79 | 1020.4 |
| 20260506223000 | 1 | 297 | 1.6 | 16.1 | 0.00 | 0.56 | 0.48 | 81 | 1020.4 |
| 20260506222800 | 1 | 307 | 3.2 | 16.1 | 0.00 | 0.56 | 0.48 | 81 | 1020.4 |
| 20260506222601 | 1 | 307 | 4.8 | 16.1 | 0.00 | 0.56 | 0.48 | 80 | 1020.4 |
| 20260506222359 | 1 | 307 | 4.8 | 16.1 | 0.00 | 0.56 | 0.48 | 80 | 1020.5 |
| 20260506221838 | 1 | 285 | 4.8 | 16.1 | 0.00 | 0.56 | 0.48 | 80 | 1020.6 |
| 20260506221639 | 1 | 258 | 4.8 | 12.9 | 0.00 | 0.56 | 0.48 | 82 | 1020.5 |
| 20260506221110 | 1 | 340 | 3.2 | 9.7 | 0.00 | 0.58 | 0.48 | 81 | 1020.5 |
| 20260506220909 | 1 | 333 | 3.2 | 11.3 | 0.00 | 0.58 | 0.48 | 80 | 1020.6 |
| 20260506220710 | 1 | 333 | 4.8 | 11.3 | 0.00 | 0.58 | 0.48 | 80 | 1020.6 |
| 20260506220141 | 0 | 355 | 3.2 | 11.3 | 0.00 | 0.58 | 0.48 | 82 | 1020.6 |
| 20260506215939 | 0 | 13 | 3.2 | 12.9 | 0.00 | 0.58 | 0.48 | 82 | 1020.6 |
| 20260506215415 | 0 | 77 | 4.8 | 12.9 | 0.00 | 0.58 | 0.48 | 81 | 1020.5 |
| 20260506215212 | 0 | 309 | 4.8 | 12.9 | 0.00 | 0.58 | 0.48 | 81 | 1020.6 |
| 20260506215009 | 0 | 278 | 4.8 | 19.3 | 0.00 | 0.58 | 0.48 | 82 | 1020.6 |
| 20260506214802 | 0 | 335 | 4.8 | 19.3 | 0.00 | 0.58 | 0.48 | 83 | 1020.6 |
| 20260506214551 | 0 | 301 | 4.8 | 19.3 | 0.00 | 0.58 | 0.48 | 83 | 1020.7 |
| 20260506214341 | 0 | 350 | 4.8 | 19.3 | 0.00 | 0.58 | 0.48 | 83 | 1020.8 |
| 20260506214141 | 0 | 5 | 6.4 | 19.3 | 0.00 | 0.58 | 0.48 | 83 | 1020.7 |
| 20260506213942 | 0 | 304 | 8.0 | 19.3 | 0.00 | 0.58 | 0.48 | 82 | 1020.8 |
| 20260506213732 | 0 | 285 | 8.0 | 19.3 | 0.00 | 0.58 | 0.48 | 81 | 1020.8 |
| 20260506213532 | 0 | 282 | 9.7 | 19.3 | 0.00 | 0.58 | 0.48 | 79 | 1020.8 |
| 20260506213331 | 0 | 302 | 9.7 | 19.3 | 0.00 | 0.58 | 0.48 | 79 | 1020.9 |
| 20260506213131 | 0 | 336 | 8.0 | 19.3 | 0.00 | 0.58 | 0.48 | 78 | 1020.9 |
| 20260506212602 | 1 | 315 | 6.4 | 14.5 | 0.10 | 0.58 | 0.48 | 80 | 1020.9 |
| 20260506212359 | 0 | 270 | 6.4 | 14.5 | 0.10 | 0.58 | 0.48 | 79 | 1020.9 |
| 20260506212153 | 0 | 26 | 6.4 | 14.5 | 0.10 | 0.58 | 0.48 | 79 | 1020.9 |
| 20260506211943 | 0 | 319 | 6.4 | 14.5 | 0.10 | 0.58 | 0.48 | 80 | 1020.9 |
| 20260506211419 | 0 | 309 | 6.4 | 14.5 | 0.10 | 0.58 | 0.48 | 81 | 1020.9 |
| 20260506211219 | 0 | 338 | 4.8 | 14.5 | 0.10 | 0.56 | 0.48 | 81 | 1020.8 |
| 20260506210701 | 1 | 44 | 6.4 | 14.5 | 0.13 | 0.56 | 0.46 | 79 | 1020.7 |
| 20260506210450 | 1 | 17 | 4.8 | 14.5 | 0.13 | 0.56 | 0.46 | 79 | 1020.8 |
| 20260506210251 | 1 | 28 | 6.4 | 14.5 | 0.13 | 0.56 | 0.46 | 79 | 1020.8 |
| 20260506205725 | 1 | 355 | 6.4 | 14.5 | 0.13 | 0.51 | 0.46 | 78 | 1020.7 |
| 20260506205515 | 1 | 355 | 6.4 | 14.5 | 0.15 | 0.51 | 0.43 | 78 | 1020.8 |
| 20260506205308 | 1 | 31 | 8.0 | 14.5 | 0.20 | 0.53 | 0.43 | 78 | 1020.8 |
| 20260506205101 | 1 | 45 | 6.4 | 14.5 | 0.25 | 0.53 | 0.43 | 78 | 1020.8 |
| 20260506204852 | 1 | 22 | 6.4 | 14.5 | 0.25 | 0.53 | 0.43 | 78 | 1020.8 |
| 20260506204647 | 1 | 5 | 6.4 | 14.5 | 0.25 | 0.53 | 0.43 | 78 | 1020.9 |
| 20260506204444 | 1 | 9 | 6.4 | 14.5 | 0.25 | 0.53 | 0.41 | 78 | 1020.9 |
| 20260506204243 | 1 | 323 | 4.8 | 14.5 | 0.25 | 0.53 | 0.41 | 78 | 1020.9 |
| 20260506204035 | 1 | 336 | 4.8 | 14.5 | 0.25 | 0.53 | 0.41 | 78 | 1020.8 |
| 20260506203831 | 1 | 0 | 4.8 | 14.5 | 0.20 | 0.48 | 0.38 | 80 | 1020.9 |
| 20260506203626 | 1 | 321 | 4.8 | 14.5 | 0.20 | 0.48 | 0.38 | 81 | 1020.9 |
| 20260506203425 | 1 | 306 | 6.4 | 14.5 | 0.20 | 0.46 | 0.38 | 81 | 1020.9 |
| 20260506203217 | 1 | 306 | 6.4 | 14.5 | 0.15 | 0.46 | 0.33 | 80 | 1021.0 |
| 20260506203007 | 1 | 30 | 8.0 | 17.7 | 0.15 | 0.46 | 0.33 | 81 | 1020.9 |